• In Hungary
  • List of Countries
  • For 7 days
  • Water Temperature
  • Satellite Maps
  • Weather Map
  • News
  • Weather Widgets
  • user-avatar
    Login

    Hourly Weather Kuenka

    Today, 19 August, Sunday

    Time Temperature Precipitation Wind Pressure Humidity
    00:00 +9°C° 0 mm 2 mps 560 mmHg 84%
    01:00 +9°C° 0 mm 2 mps 560 mmHg 83%
    02:00 +9°C° 0 mm 2 mps 560 mmHg 84%
    03:00 +9°C° 0 mm 2 mps 559 mmHg 84%
    04:00 +8°C° 0 mm 2 mps 559 mmHg 84%
    05:00 +9°C° 0 mm 2 mps 560 mmHg 83%
    06:00 +9°C° 0 mm 2 mps 560 mmHg 83%
    07:00 +9°C° 0 mm 2 mps 560 mmHg 82%
    08:00 +12°C° 0 mm 2 mps 561 mmHg 75%
    09:00 +13°C° 0 mm 3 mps 562 mmHg 69%
    10:00 +14°C° 0 mm 3 mps 563 mmHg 62%
    11:00 +17°C° 0 mm 3 mps 563 mmHg 59%
    12:00 +18°C° 0 mm 3 mps 563 mmHg 55%
    13:00 +19°C° 0 mm 3 mps 563 mmHg 51%
    14:00 +18°C° 0 mm 3 mps 563 mmHg 54%
    15:00 +17°C° 0 mm 3 mps 562 mmHg 57%
    16:00 +17°C° 0 mm 3 mps 561 mmHg 60%
    17:00 +15°C° 0 mm 2 mps 561 mmHg 69%
    18:00 +13°C° 0 mm 2 mps 560 mmHg 78%
    19:00 +10°C° 0 mm 2 mps 559 mmHg 86%
    20:00 +10°C° 0 mm 2 mps 560 mmHg 87%
    21:00 +10°C° 0 mm 2 mps 560 mmHg 87%
    22:00 +9°C° 0 mm 2 mps 560 mmHg 88%
    23:00 +9°C° 0 mm 2 mps 560 mmHg 86%

    Tomorrow, 20 August, Monday

    Time Temperature Precipitation Wind Pressure Humidity
    00:00 +9°C° 0 mm 2 mps 560 mmHg 85%
    01:00 +9°C° 0 mm 2 mps 560 mmHg 83%
    02:00 +9°C° 0 mm 2 mps 560 mmHg 83%
    03:00 +9°C° 0 mm 2 mps 560 mmHg 83%
    04:00 +9°C° 0 mm 2 mps 559 mmHg 83%
    05:00 +9°C° 0 mm 2 mps 560 mmHg 83%
    06:00 +9°C° 0 mm 2 mps 560 mmHg 82%
    07:00 +9°C° 0 mm 3 mps 560 mmHg 81%
    08:00 +11°C° 0 mm 3 mps 561 mmHg 75%
    09:00 +13°C° 0 mm 3 mps 562 mmHg 68%
    10:00 +14°C° 0 mm 4 mps 563 mmHg 62%
    11:00 +16°C° 0 mm 3 mps 563 mmHg 61%
    12:00 +16°C° 0 mm 3 mps 563 mmHg 59%
    13:00 +17°C° 0 mm 3 mps 563 mmHg 58%
    14:00 +16°C° 0 mm 3 mps 562 mmHg 61%
    15:00 +16°C° 0 mm 3 mps 561 mmHg 63%
    16:00 +15°C° 0 mm 2 mps 561 mmHg 66%
    17:00 +14°C° 0 mm 2 mps 560 mmHg 72%
    18:00 +13°C° 0 mm 2 mps 560 mmHg 78%
    19:00 +12°C° 0 mm 2 mps 560 mmHg 85%
    20:00 +10°C° 0 mm 2 mps 560 mmHg 85%
    21:00 +10°C° 0 mm 2 mps 561 mmHg 86%
    22:00 +10°C° 0 mm 2 mps 561 mmHg 86%
    23:00 +10°C° 0 mm 2 mps 561 mmHg 87%

    Day after tomorrow, 21 August, Tuesday

    Time Temperature Precipitation Wind Pressure Humidity
    00:00 +10°C° 0 mm 2 mps 561 mmHg 87%
    01:00 +10°C° 0 mm 2 mps 561 mmHg 87%
    02:00 +10°C° 0 mm 2 mps 561 mmHg 88%
    03:00 +10°C° 0 mm 2 mps 560 mmHg 88%
    04:00 +9°C° 0 mm 2 mps 560 mmHg 89%
    05:00 +10°C° 0 mm 2 mps 560 mmHg 88%
    06:00 +10°C° 0 mm 2 mps 560 mmHg 87%
    07:00 +10°C° 0 mm 2 mps 561 mmHg 86%
    08:00 +11°C° 0.1 mm 3 mps 561 mmHg 84%
    09:00 +11°C° 0.1 mm 3 mps 562 mmHg 81%
    10:00 +12°C° 0.1 mm 3 mps 563 mmHg 78%
    11:00 +13°C° 0.1 mm 3 mps 562 mmHg 77%
    12:00 +13°C° 0.1 mm 3 mps 562 mmHg 76%
    13:00 +15°C° 0.1 mm 2 mps 562 mmHg 75%
    14:00 +14°C° 0.1 mm 2 mps 562 mmHg 76%
    15:00 +14°C° 0.1 mm 2 mps 561 mmHg 77%
    16:00 +14°C° 0.1 mm 2 mps 560 mmHg 78%
    17:00 +13°C° 0 mm 2 mps 560 mmHg 81%
    18:00 +12°C° 0 mm 2 mps 560 mmHg 84%
    19:00 +10°C° 0 mm 2 mps 560 mmHg 87%
    20:00 +10°C° 0 mm 2 mps 560 mmHg 88%
    21:00 +10°C° 0 mm 2 mps 561 mmHg 88%
    22:00 +10°C° 0 mm 2 mps 561 mmHg 89%
    23:00 +10°C° 0 mm 2 mps 561 mmHg 88%

    22 August, Wednesday

    Time Temperature Precipitation Wind Pressure Humidity
    00:00 +10°C° 0 mm 2 mps 561 mmHg 87%
    01:00 +10°C° 0 mm 2 mps 561 mmHg 87%
    02:00 +10°C° 0.1 mm 2 mps 560 mmHg 87%
    03:00 +10°C° 0.1 mm 2 mps 560 mmHg 87%
    04:00 +10°C° 0.1 mm 2 mps 560 mmHg 87%
    05:00 +10°C° 0.1 mm 2 mps 560 mmHg 87%
    06:00 +10°C° 0.1 mm 2 mps 560 mmHg 87%
    07:00 +10°C° 0.1 mm 2 mps 561 mmHg 87%
    08:00 +12°C° 0.1 mm 2 mps 561 mmHg 84%
    09:00 +13°C° 0.1 mm 2 mps 562 mmHg 80%
    10:00 +13°C° 0.1 mm 3 mps 563 mmHg 77%
    11:00 +14°C° 0.2 mm 2 mps 563 mmHg 76%
    12:00 +14°C° 0.2 mm 2 mps 562 mmHg 76%
    13:00 +14°C° 0.2 mm 2 mps 562 mmHg 76%
    14:00 +14°C° 0.4 mm 2 mps 561 mmHg 78%
    15:00 +13°C° 0.4 mm 2 mps 561 mmHg 81%
    16:00 +13°C° 0.4 mm 1 mps 560 mmHg 83%
    17:00 +12°C° 0.1 mm 1 mps 560 mmHg 85%
    18:00 +12°C° 0.1 mm 1 mps 560 mmHg 86%
    19:00 +11°C° 0.1 mm 1 mps 560 mmHg 88%
    20:00 +10°C° 0.1 mm 2 mps 560 mmHg 88%
    21:00 +10°C° 0.1 mm 2 mps 561 mmHg 87%
    22:00 +10°C° 0.1 mm 2 mps 561 mmHg 87%
    23:00 +10°C° 0.1 mm 2 mps 561 mmHg 87%

    23 August, Thursday

    Time Temperature Precipitation Wind Pressure Humidity
    00:00 +10°C° 0.1 mm 2 mps 561 mmHg 87%
    01:00 +10°C° 0.1 mm 2 mps 560 mmHg 87%
    02:00 +9°C° 0 mm 2 mps 560 mmHg 87%
    03:00 +9°C° 0 mm 2 mps 560 mmHg 87%
    04:00 +9°C° 0 mm 2 mps 559 mmHg 86%
    05:00 +9°C° 0 mm 2 mps 560 mmHg 85%
    06:00 +9°C° 0 mm 2 mps 560 mmHg 84%
    07:00 +9°C° 0 mm 2 mps 560 mmHg 83%
    08:00 +12°C° 0 mm 2 mps 561 mmHg 75%
    09:00 +14°C° 0 mm 2 mps 562 mmHg 67%
    10:00 +16°C° 0 mm 2 mps 564 mmHg 58%
    11:00 +16°C° 0 mm 2 mps 563 mmHg 59%
    12:00 +17°C° 0 mm 2 mps 563 mmHg 59%
    13:00 +17°C° 0 mm 2 mps 562 mmHg 60%
    14:00 +16°C° 0.1 mm 2 mps 562 mmHg 62%
    15:00 +16°C° 0.1 mm 2 mps 561 mmHg 63%
    16:00 +16°C° 0.1 mm 2 mps 560 mmHg 65%
    17:00 +14°C° 0 mm 2 mps 560 mmHg 72%
    18:00 +13°C° 0 mm 1 mps 560 mmHg 78%
    19:00 +12°C° 0 mm 1 mps 559 mmHg 84%
    20:00 +11°C° 0 mm 1 mps 560 mmHg 86%
    21:00 +11°C° 0 mm 1 mps 560 mmHg 87%
    22:00 +10°C° 0 mm 1 mps 560 mmHg 88%
    23:00 +10°C° 0 mm 1 mps 560 mmHg 88%

    24 August, Friday

    Time Temperature Precipitation Wind Pressure Humidity
    00:00 +10°C° 0 mm 1 mps 560 mmHg 88%
    01:00 +10°C° 0 mm 1 mps 559 mmHg 87%
    02:00 +9°C° 0 mm 1 mps 559 mmHg 86%
    03:00 +9°C° 0 mm 1 mps 559 mmHg 85%
    04:00 +9°C° 0 mm 1 mps 558 mmHg 83%
    05:00 +9°C° 0 mm 1 mps 559 mmHg 81%
    06:00 +10°C° 0 mm 1 mps 559 mmHg 79%
    07:00 +9°C° 0 mm 2 mps 559 mmHg 77%
    08:00 +12°C° 0 mm 2 mps 561 mmHg 70%
    09:00 +15°C° 0 mm 2 mps 562 mmHg 63%
    10:00 +17°C° 0 mm 2 mps 563 mmHg 56%
    11:00 +18°C° 0 mm 3 mps 563 mmHg 56%
    12:00 +18°C° 0 mm 3 mps 563 mmHg 55%
    13:00 +19°C° 0 mm 3 mps 563 mmHg 54%
    14:00 +18°C° 0.1 mm 3 mps 562 mmHg 58%
    15:00 +17°C° 0.1 mm 3 mps 561 mmHg 62%
    16:00 +17°C° 0.1 mm 2 mps 560 mmHg 65%
    17:00 +15°C° 0.1 mm 2 mps 560 mmHg 72%
    18:00 +14°C° 0.1 mm 2 mps 560 mmHg 79%
    19:00 +12°C° 0.1 mm 1 mps 559 mmHg 86%
    20:00 +12°C° 0 mm 1 mps 560 mmHg 87%
    21:00 +11°C° 0 mm 1 mps 560 mmHg 88%
    22:00 +11°C° 0 mm 1 mps 560 mmHg 90%
    23:00 +11°C° 0 mm 1 mps 560 mmHg 88%
    Show more